Date String (YYYY-MM-DD hh:mm:ss) UTC,Instrument flags,Ambient pressure (hPa),Sample flow (lpm),Bypass flow (lpm),Sample temperature (°C),Ambient temperature (°C),ASC tube jacket temperature (°C),LED temperature (°C),Box temperature (°C),Sample RH (%),Span deviation,Mass concentration (μg/m³),Mass concentration (μg/m³),Mass concentration (μg/m³)
DateTimeUTC,F1_M11,P_M11,Q1_M11,Q2_M11,T1_M11,T2_M11,T3_M11,T4_M11,T5_M11,U1_M11,ZSPAN_M11,X2_M11,X0_M11,X1_M11
2022-03-31 02:00:00,,0818.0,5.00,0.00,23.3,22.5,00.0,32.3,25.0,13.3,0000.0,0003.26,0008.88,0002.38
2022-03-31 02:01:00,,0818.1,5.00,0.00,23.3,22.5,00.0,32.3,25.0,13.3,0000.0,0003.25,0009.30,0002.35
2022-03-31 02:02:00,,0818.1,5.00,0.00,23.3,22.5,00.0,32.3,25.1,13.3,0000.0,0003.25,0009.33,0002.34
2022-03-31 02:03:00,,0818.1,5.00,0.00,23.3,22.5,00.0,32.3,25.0,13.3,0000.0,0003.23,0009.90,0002.30
2022-03-31 02:04:00,,0818.1,5.00,0.00,23.3,22.5,00.0,32.3,25.0,13.4,0000.0,0003.25,0009.77,0002.30
2022-03-31 02:05:00,,0818.1,4.99,0.00,23.2,22.5,00.0,32.3,24.9,13.4,0000.0,0003.25,0009.12,0002.29
2022-03-31 02:06:00,,0818.1,4.99,0.00,23.2,22.4,00.0,32.3,24.9,13.4,0000.0,0003.29,0009.63,0002.29
2022-03-31 02:07:00,,0818.2,5.00,0.00,23.2,22.4,00.0,32.3,24.9,13.4,0000.0,0003.28,0009.71,0002.30
2022-03-31 02:08:00,,0818.1,4.99,0.00,23.2,22.3,00.0,32.3,24.9,13.5,0000.0,0003.25,0009.49,0002.30
2022-03-31 02:09:00,,0818.2,5.01,0.00,23.1,22.3,00.0,32.3,24.8,13.5,0000.0,0003.26,0010.07,0002.32
2022-03-31 02:10:00,,0818.2,5.01,0.00,23.1,22.2,00.0,32.2,24.8,13.5,0000.0,0003.25,0010.04,0002.33
2022-03-31 02:11:00,,0818.2,5.00,0.00,23.1,22.2,00.0,32.2,24.8,13.5,0000.0,0003.23,0010.03,0002.31
2022-03-31 02:12:00,,0818.3,5.00,0.00,23.1,22.2,00.0,32.2,24.8,13.5,0000.0,0003.27,0009.83,0002.33
2022-03-31 02:13:00,,0818.3,5.00,0.00,23.1,22.2,00.0,32.2,24.8,13.4,0000.0,0003.29,0010.38,0002.34
2022-03-31 02:14:00,,0818.3,5.00,0.00,23.1,22.3,00.0,32.2,24.9,13.4,0000.0,0003.34,0009.97,0002.36
2022-03-31 02:15:00,,0818.4,4.99,0.00,23.1,22.3,00.0,32.2,24.8,13.4,0000.0,0003.33,0009.93,0002.35
2022-03-31 02:16:00,,0818.4,5.00,0.00,23.1,22.2,00.0,32.2,24.8,13.4,0000.0,0003.31,0009.43,0002.35
2022-03-31 02:17:00,,0818.4,5.00,0.00,23.1,22.2,00.0,32.2,24.8,13.5,0000.0,0003.27,0009.01,0002.35
2022-03-31 02:18:00,,0818.4,5.00,0.00,23.0,22.1,00.0,32.1,24.8,13.6,0000.0,0003.26,0009.20,0002.36
2022-03-31 02:19:00,,0818.4,5.00,0.00,23.0,22.0,00.0,32.1,24.7,13.6,0000.0,0003.25,0009.10,0002.37
2022-03-31 02:20:00,,0818.5,5.00,0.00,23.0,22.0,00.0,32.1,24.8,13.6,0000.0,0003.23,0008.53,0002.38
2022-03-31 02:21:00,,0818.4,5.00,0.00,23.0,22.1,00.0,32.1,24.8,13.6,0000.0,0003.25,0008.76,0002.40
2022-03-31 02:22:00,,0818.5,5.00,0.00,23.0,22.1,00.0,32.0,24.7,13.6,0000.0,0003.27,0008.43,0002.45
2022-03-31 02:23:00,,0818.5,5.00,0.00,22.9,22.0,00.0,32.0,24.7,13.6,0000.0,0003.27,0008.11,0002.49
2022-03-31 02:24:00,,0818.5,5.00,0.00,22.9,21.9,00.0,32.0,24.7,13.7,0000.0,0003.25,0007.38,0002.51
2022-03-31 02:25:00,,0818.6,5.00,0.00,22.9,22.0,00.0,32.0,24.7,13.7,0000.0,0003.23,0007.27,0002.54
2022-03-31 02:26:00,,0818.7,5.00,0.00,22.9,22.1,00.0,32.0,24.7,13.7,0000.0,0003.25,0007.40,0002.58
2022-03-31 02:27:00,,0818.7,5.00,0.00,22.9,22.1,00.0,32.0,24.7,13.7,0000.0,0003.26,0008.47,0002.62
2022-03-31 02:28:00,,0818.7,5.00,0.00,22.9,22.1,00.0,32.0,24.7,13.7,0000.0,0003.32,0008.74,0002.66
2022-03-31 02:29:00,,0818.6,5.00,0.00,22.9,22.1,00.0,32.0,24.7,13.7,0000.0,0003.34,0008.24,0002.68
2022-03-31 02:30:00,,0818.6,4.99,0.00,22.9,22.2,00.0,32.0,24.7,13.6,0000.0,0003.38,0008.32,0002.72
2022-03-31 02:31:00,,0818.6,5.01,0.00,22.9,22.2,00.0,32.0,24.8,13.6,0000.0,0003.41,0008.05,0002.74
2022-03-31 02:32:00,,0818.7,5.01,0.00,22.9,22.2,00.0,32.0,24.8,13.6,0000.0,0003.44,0007.86,0002.75
2022-03-31 02:33:00,,0818.7,5.00,0.00,22.9,22.2,00.0,31.9,24.8,13.6,0000.0,0003.45,0007.90,0002.74
2022-03-31 02:34:00,,0818.8,5.00,0.00,22.9,22.2,00.0,31.9,24.8,13.6,0000.0,0003.44,0008.24,0002.72
2022-03-31 02:35:00,,0818.8,5.00,0.00,23.0,22.2,00.0,32.0,24.8,13.6,0000.0,0003.45,0008.96,0002.72
2022-03-31 02:36:00,,0818.8,5.01,0.00,23.0,22.2,00.0,32.0,24.8,13.6,0000.0,0003.49,0009.16,0002.71
2022-03-31 02:37:00,,0818.8,5.00,0.00,22.9,22.2,00.0,32.0,24.7,13.6,0000.0,0003.48,0009.31,0002.69
2022-03-31 02:38:00,,0818.8,5.00,0.00,22.9,22.2,00.0,31.9,24.7,13.7,0000.0,0003.49,0008.44,0002.69
2022-03-31 02:39:00,,0818.8,5.01,0.00,22.9,22.1,00.0,31.9,24.6,13.7,0000.0,0003.46,0008.30,0002.67
2022-03-31 02:40:00,,0818.8,5.00,0.00,22.9,22.1,00.0,31.9,24.6,13.7,0000.0,0003.45,0008.24,0002.65
2022-03-31 02:41:00,,0818.7,5.00,0.00,22.9,22.1,00.0,31.9,24.6,13.7,0000.0,0003.44,0008.20,0002.63
2022-03-31 02:42:00,,0818.8,5.00,0.00,22.9,22.1,00.0,31.9,24.7,13.7,0000.0,0003.44,0008.18,0002.63
2022-03-31 02:43:00,,0818.8,4.99,0.00,22.9,22.1,00.0,31.9,24.7,13.7,0000.0,0003.41,0008.09,0002.62
2022-03-31 02:44:00,,0818.8,5.00,0.00,22.9,22.2,00.0,31.9,24.7,13.7,0000.0,0003.42,0008.12,0002.63
2022-03-31 02:45:00,,0818.8,5.00,0.00,22.9,22.2,00.0,31.9,24.7,13.6,0000.0,0003.40,0007.72,0002.63
2022-03-31 02:46:00,,0818.8,5.00,0.00,22.9,22.2,00.0,31.9,24.7,13.7,0000.0,0003.42,0006.74,0002.63
2022-03-31 02:47:00,,0818.8,5.01,0.00,22.9,22.1,00.0,31.9,24.7,13.7,0000.0,0003.41,0006.55,0002.64
2022-03-31 02:48:00,,0818.9,4.99,0.00,22.9,22.1,00.0,31.9,24.7,13.6,0000.0,0003.40,0006.02,0002.65
2022-03-31 02:49:00,,0818.8,5.01,0.00,22.9,22.1,00.0,31.9,24.7,13.6,0000.0,0003.40,0005.67,0002.66
2022-03-31 02:50:00,,0818.8,5.00,0.00,22.9,22.1,00.0,31.9,24.7,13.5,0000.0,0003.40,0006.55,0002.68
2022-03-31 02:51:00,,0818.8,5.00,0.00,22.9,22.2,00.0,31.9,24.7,13.5,0000.0,0003.40,0006.76,0002.69
2022-03-31 02:52:00,,0818.7,5.00,0.00,22.9,22.2,00.0,31.9,24.8,13.4,0000.0,0003.38,0006.83,0002.69
2022-03-31 02:53:00,,0818.8,5.00,0.00,22.9,22.2,00.0,31.9,24.8,13.5,0000.0,0003.38,0007.71,0002.69
2022-03-31 02:54:00,,0818.8,5.00,0.00,22.9,22.2,00.0,31.9,24.7,13.6,0000.0,0003.35,0007.63,0002.70
2022-03-31 02:55:00,,0818.8,5.00,0.00,22.9,22.1,00.0,31.9,24.7,13.6,0000.0,0003.36,0007.64,0002.71
2022-03-31 02:56:00,,0818.8,5.00,0.00,22.9,22.1,00.0,31.9,24.7,13.7,0000.0,0003.39,0007.70,0002.72
2022-03-31 02:57:00,,0818.8,4.99,0.00,22.9,22.1,00.0,31.9,24.7,13.7,0000.0,0003.39,0007.76,0002.73
2022-03-31 02:58:00,,0818.8,5.00,0.00,22.9,22.1,00.0,31.9,24.7,13.7,0000.0,0003.38,0007.82,0002.73
2022-03-31 02:59:00,,0818.9,4.99,0.00,22.9,22.1,00.0,31.9,24.6,13.8,0000.0,0003.40,0007.82,0002.73
